Weather History for West Palm Beach, FL

Change the Weather History Date:

Friday, January 4, 2013

  Actual Average Record
Temperature  
Mean Temperature 73 °F 66 °F  
Max Temperature 82 °F 75 °F 89 °F (1942)
Min Temperature 64 °F 57 °F 32 °F (1918)
Degree Days  
Heating Degree Days 0 3  
Month to date heating degree days 12  
Since 1 July heating degree days 83  
Cooling Degree Days 8 4  
Month to date cooling degree days 16  
Year to date cooling degree days 16  
Growing Degree Days 23 (Base 50)    
Moisture  
Dew Point 66 °F    
Average Humidity 82    
Maximum Humidity 97    
Minimum Humidity 56    
Precipitation  
Precipitation 0.00 in 0.11 in 2.17 in (1966)
Month to date precipitation 0.45  
Year to date precipitation 0.45  
Snow  
Snow 0.00 in - - ()
Month to date snowfall  
Since 1 July snowfall  
Snow Depth -    
Sea Level Pressure  
Sea Level Pressure 30.17 in    
Wind  
Wind Speed 4 mph (NNW)    
Max Wind Speed 10 mph    
Max Gust Speed -    
Visibility 10 miles    
Events      
T = Trace of Precipitation, MM = Missing Value Source: NWS Daily Summary

Daily Weather History Graph

Daily Weather History Graph

Search for Another Location

Airport:

Trip Planner

Search our weather history database for the weather conditions in past years. The results will help you decide how hot, cold, wet, or windy it might be!

Date:

Astronomy

Jan. 04, 2013 Rise Set
Actual Time 7:09 AM EST 5:41 PM EST
Civil Twilight 6:44 AM EST 6:06 PM EST
Nautical Twilight 6:15 AM EST 6:35 PM EST
Astronomical Twilight 5:47 AM EST 7:03 PM EST
Moon No Moon Rise 11:34 AM EST (1/4)
Length of Visible Light 11h 22m
Length of Day
10h 31m
Waning Gibbous, 55% of the Moon is Illuminated
Jan 4
Waning Gibbous
Jan 4
Last Quarter
Jan 11
New
Jan 18
First Quarter
Jan 26
Full

Hourly Weather History & Observations

Time (EST) Temp. Heat Index Dew Point Humidity Pressure Visibility Wind Dir Wind Speed Gust Speed Precip Events Conditions
12:53 AM 69.1 °F - 66.0 °F 90% 30.11 in 10.0 mi Calm Calm - N/A   Partly Cloudy
1:53 AM 66.9 °F - 64.0 °F 90% 30.11 in 10.0 mi Calm Calm - N/A   Clear
2:53 AM 66.0 °F - 63.0 °F 90% 30.12 in 10.0 mi WNW 3.5 mph - N/A   Partly Cloudy
3:53 AM 66.0 °F - 64.0 °F 93% 30.12 in 10.0 mi NW 3.5 mph - N/A   Partly Cloudy
4:53 AM 66.9 °F - 64.9 °F 93% 30.12 in 10.0 mi Calm Calm - N/A   Partly Cloudy
5:53 AM 64.9 °F - 64.0 °F 97% 30.13 in 10.0 mi Calm Calm - N/A   Partly Cloudy
6:53 AM 64.9 °F - 63.0 °F 93% 30.15 in 10.0 mi Calm Calm - N/A   Scattered Clouds
7:18 AM 66.2 °F - 64.4 °F 94% 30.16 in 10.0 mi North 4.6 mph - N/A   Mostly Cloudy
7:53 AM 66.9 °F - 64.9 °F 93% 30.17 in 10.0 mi North 3.5 mph - N/A   Mostly Cloudy
8:21 AM 68.0 °F - 66.2 °F 94% 30.19 in 10.0 mi NNW 5.8 mph - N/A   Scattered Clouds
8:53 AM 71.1 °F - 66.9 °F 87% 30.19 in 10.0 mi Calm Calm - N/A   Scattered Clouds
9:53 AM 73.9 °F - 68.0 °F 82% 30.20 in 10.0 mi NW 6.9 mph - N/A   Scattered Clouds
10:53 AM 77.0 °F - 68.0 °F 74% 30.20 in 10.0 mi NNW 8.1 mph - N/A   Mostly Cloudy
11:07 AM 78.8 °F - 68.0 °F 69% 30.20 in 10.0 mi NNW 4.6 mph - N/A   Mostly Cloudy
11:53 AM 77.0 °F - 68.0 °F 74% 30.18 in 10.0 mi WNW 5.8 mph - N/A   Mostly Cloudy
12:51 PM 78.8 °F - 66.2 °F 65% 30.15 in 10.0 mi NW 4.6 mph - N/A   Mostly Cloudy
12:53 PM 80.1 °F 82.3 °F 66.9 °F 64% 30.15 in 10.0 mi NNW 4.6 mph - N/A   Mostly Cloudy
1:53 PM 80.1 °F 81.9 °F 64.9 °F 60% 30.14 in 10.0 mi West 6.9 mph - N/A   Mostly Cloudy
2:53 PM 78.1 °F - 68.0 °F 71% 30.12 in 10.0 mi NE 9.2 mph - N/A   Mostly Cloudy
3:02 PM 77.0 °F - 68.0 °F 74% 30.12 in 10.0 mi NE 8.1 mph - N/A   Scattered Clouds
3:53 PM 79.0 °F - 68.0 °F 69% 30.13 in 10.0 mi ENE 9.2 mph - N/A   Scattered Clouds
4:53 PM 75.9 °F - 68.0 °F 76% 30.15 in 10.0 mi NNE 10.4 mph - N/A   Scattered Clouds
5:53 PM 73.9 °F - 68.0 °F 82% 30.17 in 10.0 mi NNE 9.2 mph - N/A   Scattered Clouds
6:53 PM 73.0 °F - 68.0 °F 84% 30.19 in 10.0 mi NNE 6.9 mph - N/A   Scattered Clouds
7:36 PM 71.6 °F - 68.0 °F 88% 30.21 in 10.0 mi North 6.9 mph - N/A   Mostly Cloudy
7:53 PM 72.0 °F - 68.0 °F 87% 30.21 in 10.0 mi North 9.2 mph - N/A   Mostly Cloudy
8:03 PM 71.6 °F - 66.2 °F 83% 30.21 in 10.0 mi North 9.2 mph - N/A   Scattered Clouds
8:43 PM 71.6 °F - 66.2 °F 83% 30.23 in 10.0 mi North 5.8 mph - N/A   Mostly Cloudy
8:53 PM 71.1 °F - 66.9 °F 87% 30.23 in 10.0 mi North 6.9 mph - N/A   Mostly Cloudy
9:53 PM 70.0 °F - 66.0 °F 87% 30.23 in 10.0 mi North 10.4 mph - N/A   Mostly Cloudy
10:53 PM 70.0 °F - 66.0 °F 87% 30.23 in 10.0 mi North 9.2 mph - N/A   Overcast
11:53 PM 69.1 °F - 66.0 °F 90% 30.22 in 10.0 mi NNW 5.8 mph - N/A   Overcast